Regional Weather Roundup
Issued by NWS Goodland, KS

Home | Current Version | Previous Version | Text Only | Print | Product List | Glossary On
Versions: 1 2 3 4 5 6 7 8 9 10 11 12 13 14 15 16 17 18 19 20 21 22 23 24 25 26 27 28 29 30 31 32 33 34 35 36 37 38 39 40 41 42 43 44 45 46 47 48 49 50
000
ASUS43 KGLD 261708
RWRGLD

GOODLAND FORECAST AREA HOURLY WEATHER ROUNDUP
NATIONAL WEATHER SERVICE GOODLAND KS
1100 AM MDT FRI MAY 26 2017

...OFFICIAL OBSERVATIONS...

CITY           SKY/WX    TMP DP  RH WIND       PRES   REMARKS
GOODLAND KS    SUNNY     63  47  55 NE8       29.95S
HILL CITY KS   SUNNY     71  51  49 N13       29.90S
IMPERIAL NEB   SUNNY     63  45  51 NE12G17   29.95F
MCCOOK NEB     SUNNY     67  46  47 N10       29.92S
AKRON CO       SUNNY     58  44  60 E7        29.97F
BURLINGTON CO  SUNNY     62  51  67 NE8       29.97S
LIMON CO       SUNNY     60  48  64 CALM      29.98F
$$

...UNOFFICIAL OBSERVATIONS...

CITY           SKY/WX    TMP DP  RH WIND       PRES   REMARKS
LENORA KS        N/A     64  32  30 MISG        N/A
NORTON KS      SUNNY     68  48  49 N7        29.91R
SHARON SPRINGS   N/A     67  51  56 NE9         N/A
TRENTON NEB      N/A     64  32  30 N5          N/A
YUMA CO        FAIR      59  34  38 E7        29.96F
$$



USA.gov is the U.S. government's official web portal to all federal, state and local government web resources and services.